Showing default

GALILEO 22 (2C8), 43058

Orbit data source: Space-Track

GALILEO 22 (2C8), 43058 is a payload satellite owned by GNSS Agency (ESA) that was launched on Tue, 12 Dec 2017 UTC via an ARIANE 5ES launch vehicle from the French Guiana (FRGUI). Payloads include a variety of satellites, spacecraft, and rockets equipped with specific instruments for various scientific and technological missions. These include communications satellites like Starlink; space stations such as the ISS; scientific satellites like the Hubble; Earth observation satellites from companies like Planet Labs, Umbra, and HawkEye 360; GPS; miniature CubeSats for education and research; and military/defense satellites.

Loading next visibility...
GALILEO 22 (2C8) details
Identifier
43058, 2017-079D
Orbit
Active
Last TLE update1 day ago
Origin
Flag of ESAGNSS Agency (ESA)
ManufacturerOHB
MissionOperational Civil Navigation
Bus & MotorGALILEOSAT, AOCS
Mass715 kg wet, 700 kg dry
Launch date (UTC)
2017-12-12 (7 years ago)
Launch vehicle
ARIANE 5ES
Launch site
French Guiana (FRGUI)
Object type
Payload
Rocket body
Debris
Shape & HBRBox + 2 Pan, 14.71 m
Radar Cross Section9.223 m², Large (>1 m²)

Expand to show TLE details & history

TLE from 1 day ago
0 GALILEO 22 (2C8)
1 43058U 17079D   24338.38856193  .00000037  00000-0  00000-0 0  9997
2 43058  55.2673 236.9378 0003075 301.2488  58.8082  1.70473816 43453
Epoch: 2024-12-03T09:19Z
Definitive object data (Epoch: 2024-12-03T09:19:31.75Z)
Latitude0.00007°
Longitude24.35783°
Altitude23,217.745 km
Speed3.67 km/s
True Right ascension15h 47m 45s
True Declination0° 00' 00"
Sunlit
Object was in daylight at TLE epoch
Visualization TLE readout
Latitude-50.81492°
Longitude-97.60463°
Altitude23,234.922 km
Speed3.67 km/s
Apparent Right ascension07h 51m 45s
Apparent Declination-62° 46' 31"
Sunlit
Object is in daylight
Visualization observer readout
Local Sidereal Time07:06:10
Azimuth174.674° S
Elevation-13.098°
Doppler factor1
Orbital elements
Apogee altitude23,231.305 km
Perigee altitude23,213.101 km
Semi-major axis29,600.34 km
Eccentricity0.0003075
Inclination55.2673°
RAAN236.9378°
Arg. of periapsis301.2488°
True anomaly58.83835°
Mean anomaly58.8082°
Eccentric anomaly58.82327°
Mean motion0.42618 °/min
BSTARUnknown
Orbital period844.7 mins
Loading maneuver chart data...
Loading historical data...
Loading historical data...
Loading historical data...
Loading historical data...
Loading historical data...
Loading historical data...
Loading historical data...

GALILEO 22 (2C8) Visibility forecast

Observer location: undefined°, undefined

Span
Click to sort rows by Start time (UTC) header in descending order
Start Az.
Max El. time (UTC)
Max El. Az.
Max El.
End time (UTC)
End Az.
205 mins2024-12-04 13:46:55.678Z101.014° ESE2024-12-04 15:30:55.678Z64.661° ENE23.515°2024-12-04 17:11:55.678Z36.002° NE
127 mins2024-12-05 07:04:55.678Z324.179° NNW2024-12-05 08:29:55.678Z299.089° NW20.133°2024-12-05 09:11:55.678Z283.694° WNW
|